This demonstration page uses our WeatherBlox Daily Observations layout. Learn more.

Left ArrowRight Arrow

Hourly Observations for July 17, 2018

Temp ( °F °C ) Dew Point ( °F °C ) Humidity (%) Winds ( mph kmh ) Pressure ( in mb ) Visibility ( mi km ) Precip ( " mm )
12:53 am 00:53 Clear 78 25.6 58 14.4 50 50 S 8 13 29.94 1014 10 16 0.00 0.00
1:53 am 01:53 Clear 75 23.9 59 15 58 58 SSE 6 9 29.93 1014 10 16 0.00 0.00
2:53 am 02:53 Clear 74 23.3 61 16.1 64 64 SE 6 9 29.93 1014 10 16 0.00 0.00
3:53 am 03:53 Clear 72 22.2 60 15.6 66 66 E 5 7 29.94 1014 10 16 0.00 0.00
4:53 am 04:53 Clear 72 22.2 57 13.9 59 59 ESE 7 11 29.94 1014 10 16 0.00 0.00
5:53 am 05:53 Clear 70 21.1 57 13.9 64 64 ESE 3 6 29.94 1014 10 16 0.00 0.00
6:53 am 06:53 Clear 73 22.8 56 13.3 55 55 SE 9 15 29.94 1014 10 16 0.00 0.00
7:53 am 07:53 Sunny 73 22.8 57 13.9 57 57 ESE 9 15 29.96 1015 10 16 0.00 0.00
8:53 am 08:53 Sunny 78 25.6 57 13.9 48 48 SE 12 19 29.97 1015 10 16 0.00 0.00
9:53 am 09:53 Sunny 82 27.8 58 14.4 44 44 SE 9 15 29.98 1015 10 16 0.00 0.00
10:53 am 10:53 Sunny 86 30 59 15 40 40 SSE 5 7 29.98 1015 10 16 0.00 0.00
11:53 am 11:53 Sunny 89 31.7 59 15 36 36 SW 3 6 29.97 1015 10 16 0.00 0.00
12:53 pm 12:53 Sunny 92 33.3 59 15 33 33 undefined N/A 29.96 1015 10 16 0.00 0.00
1:53 pm 13:53 Sunny 94 34.4 58 14.4 30 30 VRB 5 7 29.95 1014 10 16 0.00 0.00
2:53 pm 14:53 Sunny 96 35.6 54 12.2 24 24 SE 12 19 29.93 1014 10 16 0.00 0.00
3:53 pm 15:53 Sunny 97 36.1 50 10 20 20 VRB 6 9 29.91 1013 10 16 0.00 0.00
4:53 pm 16:53 Sunny 97 36.1 50 10 20 20 SE 9 15 29.89 1012 10 16 0.00 0.00
5:53 pm 17:53 Sunny 97 36.1 51 10.6 21 21 SSW 7 11 29.88 1012 10 16 0.00 0.00
6:53 pm 18:53 Sunny 96 35.6 51 10.6 22 22 VRB 5 7 29.86 1011 10 16 0.00 0.00
7:53 pm 19:53 Sunny 96 35.6 53 11.7 23 23 S 7 11 29.86 1011 10 16 0.00 0.00
8:53 pm 20:53 Sunny 91 32.8 53 11.7 27 27 SSE 6 9 29.86 1011 10 16 0.00 0.00
9:53 pm 21:53 Clear 85 29.4 54 12.2 35 35 ESE 5 7 29.87 1011 10 16 0.00 0.00
10:53 pm 22:53 Clear 84 28.9 54 12.2 36 36 ESE 6 9 29.88 1012 10 16 0.00 0.00
11:53 pm 23:53 Clear 85 29.4 54 12.2 35 35 SE 9 15 29.89 1012 10 16 0.00 0.00

Powered by AerisWeather